Home   Weather   Norden   Past weeks

Flag for Germany Past Weather in Norden, Lower Saxony, Germany — Yesterday and Last 2 Weeks

40 °F


Feels Like: 40 °F
Forecast: 49 / 52 °F
Wind: 2 mph from Northwest

Location: Emden-Koenigspolder

Current Time: Oct 20, 2016 at 11:32:28 PM

Latest Report: Oct 20, 2016 at 10:00 PM

Visibility: 2 mi

Pressure: 30.00 "Hg

Humidity: 97%

Dew Point: 39 °F

Location of NordenLocation

Past Weather in Norden — Graph


Norden Temperature Yesterday

Maximum temperature yesterday: 51 °F (at 4:00 PM)
Minimum temperature yesterday: 44 °F (at 7:00 AM)
Average temperature yesterday: 47 °F

High & Low Weather Summary for the Past Weeks

High62 °F (Oct 16, 4:00 PM)100% (Oct 10, 4:00 AM)30.51 "Hg (Oct 10, 4:00 AM)
Low37 °F (Oct 9, 3:00 AM)56% (Oct 10, 1:00 PM)29.72 "Hg (Oct 15, 6:00 AM)
Average49 °F87%30.13 "Hg
* Reported Oct 5 10:00 PM — Oct 20 10:00 PM, Norden, Weather by CustomWeather, © 2016

Note: Actual official high and low records may vary slightly from our data, if they occured in-between our weather recording intervals... More about our weather records


Norden Weather History for the Previous 24 Hours

Scroll right to see more
Time TempWeatherWind HumidityBarometerVisibility
10:00 PM
Thu, Oct 20
40 °FOvercast.2 mph97%30.00 "Hg2 mi
9:00 PM41 °FPassing clouds.2 mph94%30.00 "Hg5 mi
7:00 PM47 °FOvercast.3 mph86%29.97 "Hg8 mi
6:00 PM48 °FOvercast.5 mph81%29.96 "Hg12 mi
4:00 PM51 °FOvercast.6 mph77%29.94 "Hg11 mi
3:00 PM52 °FOvercast.5 mph83%29.93 "Hg6 mi
1:00 PM50 °FOvercast.3 mph85%29.94 "Hg9 mi
12:00 PM49 °FOvercast.3 mph87%29.94 "Hg10 mi
10:00 AM47 °FLow clouds.3 mph96%29.90 "Hg5 mi
9:00 AM47 °FDrizzle. Low clouds.5 mph98%29.87 "Hg3 mi
7:00 AM46 °FRain. Overcast.2 mph99%29.87 "Hg1 mi
6:00 AM46 °FRain. Low clouds.1 mph99%29.89 "Hg2 mi
4:00 AM45 °FLight rain. Overcast.2 mph98%29.91 "Hg4 mi
3:00 AM44 °FLight rain. Overcast.No wind99%29.93 "Hg3 mi
1:00 AM43 °FOvercast.2 mph99%29.93 "Hg4 mi
12:00 AM44 °FOvercast.1 mph97%29.92 "Hg9 mi
Weather by CustomWeather, © 2016

See weather overviewHow to use our weather pages